This is the latest recevied weather packets stored in our database for station/object LU4HH-15. If no packets are shown the sender has not sent any weather packets the latest 10 day(s).
| Time | Temp. | Humidity | Pressure | Rain* | Wind** | Luminosity | Snow |
|---|---|---|---|---|---|---|---|
| 1788617144 | 14.44° C | 36% | 1033.1 hPa | - | - | - | - |
| 1788616243 | 14.44° C | 35% | 1033.1 hPa | - | - | - | - |
| 1788615342 | 14.44° C | 35% | 1033.1 hPa | - | - | - | - |
| 1788614441 | 13.89° C | 36% | 1033 hPa | - | - | - | - |
| 1788613541 | 13.89° C | 36% | 1032.9 hPa | - | - | - | - |
| 1788612639 | 13.89° C | 36% | 1032.8 hPa | - | - | - | - |
| 1788611738 | 13.33° C | 36% | 1032.6 hPa | - | - | - | - |
| 1788610837 | 13.33° C | 36% | 1032.5 hPa | - | - | - | - |
| 1788609937 | 13.33° C | 36% | 1032.2 hPa | - | - | - | - |
| 1788609035 | 13.33° C | 36% | 1032 hPa | - | - | - | - |
| 1788608134 | 13.33° C | 36% | 1032 hPa | - | - | - | - |
| 1788607228 | 13.33° C | 36% | 1031.6 hPa | - | - | - | - |
| 1788606328 | 13.33° C | 35% | 1031.3 hPa | - | - | - | - |
| 1788605426 | 15° C | 33% | 1031.1 hPa | - | - | - | - |
| 1788603712 | 13.33° C | 35% | 1030.8 hPa | - | - | - | - |
| 1788602811 | 13.33° C | 35% | 1030.6 hPa | - | - | - | - |
| 1788601909 | 13.89° C | 35% | 1030.3 hPa | - | - | - | - |
| 1788601032 | 13.33° C | 35% | 1030.2 hPa | - | - | - | - |
| 1788600131 | 13.33° C | 35% | 1029.9 hPa | - | - | - | - |
| 1788599230 | 13.89° C | 35% | 1029.7 hPa | - | - | - | - |
| 1788598329 | 13.89° C | 35% | 1029.5 hPa | - | - | - | - |
| 1788597427 | 13.89° C | 34% | 1029.3 hPa | - | - | - | - |
| 1788596526 | 13.89° C | 34% | 1029.1 hPa | - | - | - | - |
| 1788595626 | 13.89° C | 34% | 1029.1 hPa | - | - | - | - |
| 1788594724 | 14.44° C | 34% | 1028.9 hPa | - | - | - | - |
* Rain since midnight (hover to see other rain measurements)
** Current wind speed in m/s (hover to see current wind gust speed)